Powrót do katalogu

STARLINK-30984

AktywnyŁącznośćVLEO
NORAD 58480·PAYLOAD·🇺🇸 United States

Wystrzelony Dec 3, 2023 z Cape Canaveral Space Force Station

Loading…

Następne Przeloty (najbliższe 24 godziny)

TLE

ŚwieżeSource: CelesTrak SupGP

Epoka: Sep 14, 2026, 22:23 UTC

1 58480C 23186H   26257.93312500  .00051208  00000+0  18548-2 0  2570
2 58480  43.0030  74.5378 0001354 272.4429  55.3147 15.27552846    15

Śledź STARLINK-30984 w czasie rzeczywistym z AllMySat

Download on the App Store